#timestamp,LO_Frequency,Hit,StdDev 
1601352015.2,286046999.7,N
1601352035.9,286047000.2,N
1601352055.7,286047011.9,Y
1601352075.6,286046999.7,P
1601352095.4,286047000.6,N
1601352115.3,286046995.7,P
1601352135.1,286046994.4,N
1601352136.0,286046994.4,N
1601352155.8,286046994.0,N
1601352175.7,286046995.5,N
1601352195.5,286046994.2,N
1601352215.3,286046993.2,N
1601352235.2,286046993.6,N
1601352255.0,286046996.6,N
1601352255.9,286046996.6,N
1601352275.8,286046998.7,N
1601352295.6,286047000.3,N
1601352315.4,286047000.7,N
1601352335.3,286047002.2,N
1601352355.1,286047001.5,N
1601352375.9,286047004.0,N
1601352395.7,286047003.7,N
1601352415.5,286047001.8,N
1601352435.4,286046999.8,N
1601352455.2,286046998.9,N
1601352475.0,286046997.5,N
1601352475.9,286046997.5,N
1601352495.8,286046997.8,N
1601352515.6,286046997.0,N
1601352535.5,286046997.1,N
1601352555.3,286046996.8,N
1601352575.1,286046995.0,N
1601352595.9,286046993.8,N
1601352615.7,286046993.9,N
1601352635.5,286046995.9,N
1601352655.4,286046993.3,N
1601352675.2,286046994.2,N
1601352695.1,286046994.6,N
1601352696.0,286046994.6,N
1601352715.8,286046993.4,N
1601352735.6,286046998.0,N
1601352755.5,286046997.9,N
1601352775.3,286046996.6,N
1601352795.2,286046997.0,N
1601352815.9,286046997.5,N
1601352835.7,286046997.1,N
1601352855.6,286046999.4,N
1601352875.4,286047000.6,N
1601352895.2,286047001.0,N
1601352915.1,286046998.2,N
1601352916.0,286046998.2,N
1601352935.8,286046999.4,N
1601352955.7,286046998.7,N
1601352975.5,286046998.7,N
1601352995.3,286046999.4,N
1601353015.2,286046998.4,N
1601353035.0,286046998.6,N
1601353035.9,286046998.6,N
1601353055.8,286046999.1,N
1601353075.6,286046996.9,N
1601353095.4,286046998.2,N
1601353115.3,286047002.6,N
1601353135.1,286046998.5,N
1601353155.8,286047002.1,N
1601353175.7,286047003.2,N
1601353195.5,286047002.8,N
1601353215.4,286046998.7,N
1601353235.2,286047001.7,N
1601353255.0,286047003.6,N
1601353255.9,286047003.6,N
1601353275.8,286047004.0,N
1601353295.6,286046999.8,N
1601353315.5,286046999.9,N
1601353335.3,286046998.5,N
1601353355.1,286046998.3,N
1601353375.9,286046999.9,N
1601353395.7,286047000.0,N
1601353415.5,286046998.3,N
1601353435.4,286046998.9,N
1601353455.2,286046999.5,N
1601353475.1,286047002.7,N
1601353476.0,286047002.7,N
1601353495.8,286046999.7,N
1601353515.6,286047002.5,N
1601353535.5,286047000.6,N
1601353555.3,286046998.7,N
1601353575.1,286047000.1,N
1601353595.9,286046998.6,N
1601353615.7,286046999.0,N
1601353635.6,286046998.8,N
1601353655.4,286047000.8,N
1601353675.2,286046999.1,N
1601353695.1,286046999.5,N
1601353696.0,286046999.5,N
1601353715.8,286046999.1,N
1601353735.6,286046999.0,N
1601353755.5,286047001.5,N
1601353775.3,286047002.0,N
1601353795.2,286046999.7,N
1601353815.9,286046999.9,N
1601353835.7,286046998.1,N
1601353855.6,286047000.9,N
1601353875.4,286047000.0,N
1601353895.3,286046998.7,N
1601353915.1,286046999.8,N
1601353916.0,286046999.8,N
1601353935.8,286047000.3,N
1601353955.7,286047001.5,N
1601353975.5,286047003.0,N
1601353995.3,286047004.8,Y
1601354015.2,286047004.9,P
1601354035.0,286047005.5,N
1601354035.9,286047005.5,N
1601354055.8,286047004.6,N
1601354075.6,286047008.7,Y
1601354095.4,286047000.4,P
1601354115.3,286046998.2,N
1601354135.1,286046999.3,N
1601354155.9,286046998.0,N
1601354205.7,286046993.4,E
1601354215.6,286046997.3,N
1601354235.5,286047002.1,P
1601354255.3,286047000.3,N
1601354275.2,286047003.9,N
1601354295.9,286046999.9,N
1601354315.7,286047000.0,N
1601354335.6,286046999.8,N
1601354355.4,286046998.9,N
1601354375.3,286047000.2,N
1601354395.1,286046999.8,N
1601354396.0,286046999.8,N
1601354415.8,286047000.9,N
1601354435.7,286047000.7,N
1601354455.5,286047002.1,N
1601354475.4,286047000.3,N
1601354495.2,286047002.2,N
1601354515.0,286047002.0,N
1601354515.9,286047002.0,N
1601354535.8,286047002.7,N
1601354555.6,286047002.7,N
1601354575.4,286046999.9,N
1601354595.3,286047002.8,N
1601354615.1,286046999.7,N
1601354635.9,286047004.2,N
1601354655.7,286047002.1,N
1601354675.5,286047002.8,N
1601354695.4,286047002.2,N
1601354715.2,286047000.6,N
1601354735.0,286047000.6,N
1601354736.0,286047000.6,N
1601354755.8,286046998.1,N
1601354775.6,286047002.8,N
1601354795.5,286047002.8,N
1601354815.3,286047003.7,N
1601354835.1,286047006.0,Y
1601354855.9,286047000.6,P
1601354875.7,286047000.0,N
1601354895.6,286046998.2,P
1601354915.4,286047001.5,N
1601354935.2,286047000.1,N
1601354955.1,286047004.1,Y
1601354956.0,286047004.1,P
1601354975.8,286047003.9,N
1601354995.7,286047000.7,N
1601355015.5,286047001.1,N
1601355035.3,286047001.1,N
1601355055.2,286046999.4,N
1601355075.0,286046996.5,N
1601355075.9,286046996.5,N
1601355095.8,286046998.7,N
1601355115.6,286047000.8,N
1601355135.4,286046998.2,N
1601355155.3,286047002.0,N
1601355175.1,286047002.9,N
1601355195.8,286047004.4,N
1601355215.7,286047002.2,N
1601355235.5,286047001.8,N
1601355255.4,286047002.7,N
1601355275.2,286047002.7,N
1601355295.0,286046998.2,N
1601355295.9,286046998.2,N
1601355315.8,286047001.8,N
1601355335.6,286047000.3,N
1601355355.4,286046998.2,N
1601355375.3,286047000.0,N
1601355395.1,286046998.3,N
1601355415.9,286047004.4,N
1601355435.7,286047003.8,N
1601355455.5,286047004.7,N
1601355475.4,286047003.9,N
1601355495.2,286047001.9,N
1601355515.0,286047000.7,N
1601355515.9,286047000.7,N
1601355535.8,286047004.1,N
1601355555.6,286047000.0,N
1601355575.5,286047000.1,N
1601355595.3,286047003.6,N
